Tracking 19794 objects as of 21-Jul-2019
HD Live streaming from Space Station
objects crossing your sky now

ATLAS H R/B

Track ATLAS H R/B now!
10-day predictions


NORAD ID: 17998
Int'l Code: 1987-043B
Perigee: 523.3 km
Apogee: 1,687.7 km
Inclination: 63.3 °
Period: 107.2 minutes
Semi major axis: 7476 km
RCS: Unknown
Launch date: May 15, 1987
Source: United States (US)
Launch site: AIR FORCE WESTERN TEST RANGE (AFWTR)

Note: This is a ROCKET BODY
aabbcc
Your satellite tracking list
Your tracking list is empty




NASA's NSSDC Master Catalog

Two Line Element Set (TLE):
1 17998U 87043B   19201.79493170 -.00000213  00000-0 -21725-4 0  9998
2 17998  63.3099 332.9769 0778683  81.3985 287.4398 13.42943442 11737
Source of the keplerian elements: AFSPC